Time,TemperatureF,DewpointF,PressureIn,WindDirection,WindDirectionDegrees,WindSpeedMPH,WindSpeedGustMPH,Humidity,HourlyPrecipIn,Conditions,Clouds,dailyrainin,SoftwareType,DateUTC
2013-07-01 00:02:00,63.0,55.7,30.13,SW,225,0.0,5.0,77,0.00,,,0.00,VWS V14.01,2013-07-01 06:02:00,
2013-07-01 00:07:00,62.0,55.1,30.13,SW,225,0.0,5.0,78,0.00,,,0.00,VWS V14.01,2013-07-01 06:07:00,
2013-07-01 00:12:00,62.0,56.5,30.14,WSW,247,0.0,5.0,82,0.00,,,0.00,VWS V14.01,2013-07-01 06:12:00,
2013-07-01 00:17:00,62.0,56.8,30.14,WSW,247,0.0,5.0,83,0.00,,,0.00,VWS V14.01,2013-07-01 06:17:00,
2013-07-01 00:22:00,62.0,56.8,30.14,WSW,247,0.0,5.0,83,0.00,,,0.00,VWS V14.01,2013-07-01 06:22:00,
2013-07-01 00:27:00,62.0,56.8,30.14,WSW,247,0.0,5.0,83,0.00,,,0.00,VWS V14.01,2013-07-01 06:27:00,
2013-07-01 00:32:00,62.0,56.5,30.14,West,270,0.0,0.0,82,0.00,,,0.00,VWS V14.01,2013-07-01 06:32:00,
2013-07-01 00:37:00,62.0,55.8,30.14,West,270,0.0,0.0,80,0.00,,,0.00,VWS V14.01,2013-07-01 06:37:00,
2013-07-01 00:42:00,62.0,55.8,30.15,SW,225,0.0,0.0,80,0.00,,,0.00,VWS V14.01,2013-07-01 06:42:00,
2013-07-01 00:47:00,62.0,55.8,30.15,SW,225,0.0,0.0,80,0.00,,,0.00,VWS V14.01,2013-07-01 06:47:00,
2013-07-01 00:52:00,62.0,55.8,30.15,SW,225,0.0,0.0,80,0.00,,,0.00,VWS V14.01,2013-07-01 06:52:00,
2013-07-01 00:57:00,62.0,56.5,30.15,SW,225,0.0,0.0,82,0.00,,,0.00,VWS V14.01,2013-07-01 06:57:00,
2013-07-01 01:02:00,62.0,56.1,30.15,SW,225,0.0,0.0,81,0.00,,,0.00,VWS V14.01,2013-07-01 07:02:00,
2013-07-01 01:07:00,62.0,56.5,30.15,SW,225,0.0,0.0,82,0.00,,,0.00,VWS V14.01,2013-07-01 07:07:00,
2013-07-01 01:12:00,62.0,56.5,30.15,SW,225,0.0,0.0,82,0.00,,,0.00,VWS V14.01,2013-07-01 07:12:00,
2013-07-01 01:17:00,62.0,56.1,30.15,SW,225,0.0,0.0,81,0.00,,,0.00,VWS V14.01,2013-07-01 07:17:00,
2013-07-01 01:22:00,62.0,56.1,30.15,SW,225,0.0,0.0,81,0.00,,,0.00,VWS V14.01,2013-07-01 07:22:00,
2013-07-01 01:27:00,62.0,56.1,30.15,SW,225,0.0,0.0,81,0.00,,,0.00,VWS V14.01,2013-07-01 07:27:00,
2013-07-01 01:32:00,62.0,55.8,30.15,SW,225,0.0,0.0,80,0.00,,,0.00,VWS V14.01,2013-07-01 07:32:00,
2013-07-01 01:37:00,62.0,55.4,30.15,SW,225,0.0,0.0,79,0.00,,,0.00,VWS V14.01,2013-07-01 07:37:00,
2013-07-01 01:42:00,62.0,55.4,30.15,SW,225,0.0,0.0,79,0.00,,,0.00,VWS V14.01,2013-07-01 07:42:00,
2013-07-01 01:47:00,62.0,55.8,30.15,SW,225,0.0,0.0,80,0.00,,,0.00,VWS V14.01,2013-07-01 07:47:00,
2013-07-01 01:52:00,62.0,56.1,30.15,SW,225,0.0,0.0,81,0.00,,,0.00,VWS V14.01,2013-07-01 07:52:00,
2013-07-01 01:57:00,62.0,56.1,30.15,SW,225,0.0,0.0,81,0.00,,,0.00,VWS V14.01,2013-07-01 07:57:00,
2013-07-01 02:02:00,63.0,56.7,30.15,SW,225,0.0,0.0,80,0.00,,,0.00,VWS V14.01,2013-07-01 08:02:00,
2013-07-01 02:07:00,63.0,56.4,30.15,SW,225,0.0,0.0,79,0.00,,,0.00,VWS V14.01,2013-07-01 08:07:00,
2013-07-01 02:12:00,63.0,56.4,30.15,SW,225,0.0,0.0,79,0.00,,,0.00,VWS V14.01,2013-07-01 08:12:00,
2013-07-01 02:17:00,63.0,56.7,30.15,SW,225,0.0,0.0,80,0.00,,,0.00,VWS V14.01,2013-07-01 08:17:00,
2013-07-01 02:22:00,63.0,56.7,30.15,SW,225,0.0,0.0,80,0.00,,,0.00,VWS V14.01,2013-07-01 08:22:00,
2013-07-01 02:27:00,62.0,55.8,30.15,SW,225,0.0,0.0,80,0.00,,,0.00,VWS V14.01,2013-07-01 08:27:00,
2013-07-01 02:32:00,62.0,56.5,30.15,ESE,112,2.0,2.0,82,0.00,,,0.00,VWS V14.01,2013-07-01 08:32:00,
2013-07-01 02:37:00,63.0,57.1,30.15,ESE,112,0.0,2.0,81,0.00,,,0.00,VWS V14.01,2013-07-01 08:37:00,
2013-07-01 02:42:00,62.0,55.8,30.14,ESE,112,0.0,2.0,80,0.00,,,0.00,VWS V14.01,2013-07-01 08:42:00,
2013-07-01 02:47:00,62.0,56.5,30.14,ESE,112,0.0,2.0,82,0.00,,,0.00,VWS V14.01,2013-07-01 08:47:00,
2013-07-01 02:52:00,62.0,56.8,30.15,ESE,112,0.0,2.0,83,0.00,,,0.00,VWS V14.01,2013-07-01 08:52:00,
2013-07-01 02:57:00,62.0,57.1,30.15,ESE,112,0.0,2.0,84,0.00,,,0.00,VWS V14.01,2013-07-01 08:57:00,
2013-07-01 03:02:00,62.0,57.1,30.15,ESE,112,0.0,0.0,84,0.00,,,0.00,VWS V14.01,2013-07-01 09:02:00,
2013-07-01 03:07:00,62.0,57.1,30.15,ESE,112,0.0,0.0,84,0.00,,,0.00,VWS V14.01,2013-07-01 09:07:00,
2013-07-01 03:12:00,62.0,56.8,30.15,ESE,112,0.0,0.0,83,0.00,,,0.00,VWS V14.01,2013-07-01 09:12:00,
2013-07-01 03:17:00,62.0,57.1,30.15,ESE,112,0.0,0.0,84,0.00,,,0.00,VWS V14.01,2013-07-01 09:17:00,
2013-07-01 03:22:00,62.0,57.1,30.15,SE,135,0.0,0.0,84,0.00,,,0.00,VWS V14.01,2013-07-01 09:22:00,
2013-07-01 03:27:00,61.0,56.5,30.15,SE,135,0.0,0.0,85,0.00,,,0.00,VWS V14.01,2013-07-01 09:27:00,
2013-07-01 03:32:00,61.0,56.5,30.15,SE,135,0.0,0.0,85,0.00,,,0.00,VWS V14.01,2013-07-01 09:32:00,
2013-07-01 03:37:00,61.0,56.5,30.15,SE,135,0.0,0.0,85,0.00,,,0.00,VWS V14.01,2013-07-01 09:37:00,
2013-07-01 03:42:00,61.0,57.1,30.16,SE,135,0.0,0.0,87,0.00,,,0.00,VWS V14.01,2013-07-01 09:42:00,
2013-07-01 03:47:00,61.0,57.4,30.16,SE,135,0.0,0.0,88,0.00,,,0.00,VWS V14.01,2013-07-01 09:47:00,
2013-07-01 03:52:00,61.0,57.1,30.16,SE,135,0.0,0.0,87,0.00,,,0.00,VWS V14.01,2013-07-01 09:52:00,
2013-07-01 03:57:00,61.0,57.1,30.16,SE,135,0.0,0.0,87,0.00,,,0.00,VWS V14.01,2013-07-01 09:57:00,
2013-07-01 04:03:00,61.0,57.4,30.16,SSE,157,0.0,0.0,88,0.00,,,0.00,VWS V14.01,2013-07-01 10:03:00,
2013-07-01 04:08:00,60.0,56.1,30.16,SSE,157,0.0,0.0,87,0.00,,,0.00,VWS V14.01,2013-07-01 10:08:00,
2013-07-01 04:13:00,60.0,56.1,30.16,SE,135,0.0,0.0,87,0.00,,,0.00,VWS V14.01,2013-07-01 10:13:00,
2013-07-01 04:18:00,60.0,56.4,30.16,SE,135,0.0,0.0,88,0.00,,,0.00,VWS V14.01,2013-07-01 10:18:00,
2013-07-01 04:23:00,60.0,56.4,30.16,SE,135,0.0,0.0,88,0.00,,,0.00,VWS V14.01,2013-07-01 10:23:00,
2013-07-01 04:28:00,60.0,56.1,30.16,SE,135,0.0,0.0,87,0.00,,,0.00,VWS V14.01,2013-07-01 10:28:00,
2013-07-01 04:33:00,61.0,57.1,30.16,SE,135,1.0,4.0,87,0.00,,,0.00,VWS V14.01,2013-07-01 10:33:00,
2013-07-01 04:38:00,61.0,57.1,30.16,SE,135,0.0,4.0,87,0.00,,,0.00,VWS V14.01,2013-07-01 10:38:00,
2013-07-01 04:43:00,60.0,56.4,30.16,SE,135,0.0,4.0,88,0.00,,,0.00,VWS V14.01,2013-07-01 10:43:00,
2013-07-01 04:48:00,60.0,56.4,30.16,SE,135,0.0,4.0,88,0.00,,,0.00,VWS V14.01,2013-07-01 10:48:00,
2013-07-01 04:53:00,60.0,56.8,30.17,SE,135,0.0,4.0,89,0.00,,,0.00,VWS V14.01,2013-07-01 10:53:00,
2013-07-01 04:58:00,60.0,56.8,30.17,SE,135,0.0,4.0,89,0.00,,,0.00,VWS V14.01,2013-07-01 10:58:00,
2013-07-01 05:03:00,60.0,56.8,30.17,SSE,157,0.0,0.0,89,0.00,,,0.00,VWS V14.01,2013-07-01 11:03:00,
2013-07-01 05:08:00,60.0,56.8,30.17,SSE,157,0.0,0.0,89,0.00,,,0.00,VWS V14.01,2013-07-01 11:08:00,
2013-07-01 05:13:00,60.0,56.8,30.17,SSE,157,0.0,0.0,89,0.00,,,0.00,VWS V14.01,2013-07-01 11:13:00,
2013-07-01 05:18:00,60.0,56.8,30.17,SSE,157,0.0,0.0,89,0.00,,,0.00,VWS V14.01,2013-07-01 11:18:00,
2013-07-01 05:23:00,60.0,56.8,30.17,SSE,157,0.0,0.0,89,0.00,,,0.00,VWS V14.01,2013-07-01 11:23:00,
2013-07-01 05:28:00,60.0,56.8,30.17,SSW,202,0.0,0.0,89,0.00,,,0.00,VWS V14.01,2013-07-01 11:28:00,
2013-07-01 05:33:00,60.0,56.8,30.17,SSW,202,0.0,0.0,89,0.00,,,0.00,VWS V14.01,2013-07-01 11:33:00,
2013-07-01 05:38:00,60.0,56.8,30.17,SSW,202,0.0,0.0,89,0.00,,,0.00,VWS V14.01,2013-07-01 11:38:00,
2013-07-01 05:43:00,60.0,56.8,30.17,SSW,202,0.0,0.0,89,0.00,,,0.00,VWS V14.01,2013-07-01 11:43:00,
2013-07-01 05:48:00,60.0,56.8,30.17,SSW,202,0.0,0.0,89,0.00,,,0.00,VWS V14.01,2013-07-01 11:48:00,
2013-07-01 05:53:00,60.0,56.8,30.17,SSW,202,3.0,4.0,89,0.00,,,0.00,VWS V14.01,2013-07-01 11:53:00,
2013-07-01 05:58:00,60.0,56.8,30.17,SSW,202,2.0,4.0,89,0.00,,,0.00,VWS V14.01,2013-07-01 11:58:00,
2013-07-01 06:03:00,60.0,56.8,30.17,SSW,202,0.0,2.0,89,0.00,,,0.00,VWS V14.01,2013-07-01 12:03:00,
2013-07-01 06:08:00,60.0,56.8,30.17,SSW,202,0.0,2.0,89,0.00,,,0.00,VWS V14.01,2013-07-01 12:08:00,
2013-07-01 06:13:00,61.0,57.7,30.17,SSW,202,0.0,2.0,89,0.00,,,0.00,VWS V14.01,2013-07-01 12:13:00,
2013-07-01 06:18:00,61.0,57.7,30.17,SSW,202,0.0,2.0,89,0.00,,,0.00,VWS V14.01,2013-07-01 12:18:00,
2013-07-01 06:23:00,62.0,58.7,30.16,SSW,202,0.0,2.0,89,0.00,,,0.00,VWS V14.01,2013-07-01 12:23:00,
2013-07-01 06:28:00,63.0,58.4,30.16,SSE,157,3.0,3.0,85,0.00,,,0.00,VWS V14.01,2013-07-01 12:28:00,
2013-07-01 06:33:00,64.0,58.7,30.15,SSE,157,3.0,4.0,83,0.00,,,0.00,VWS V14.01,2013-07-01 12:33:00,
2013-07-01 06:38:00,65.0,58.0,30.15,South,180,4.0,4.0,78,0.00,,,0.00,VWS V14.01,2013-07-01 12:38:00,
2013-07-01 06:43:00,66.0,57.5,30.15,South,180,6.0,7.0,74,0.00,,,0.00,VWS V14.01,2013-07-01 12:43:00,
2013-07-01 06:48:00,66.0,57.5,30.15,South,180,7.0,7.0,74,0.00,,,0.00,VWS V14.01,2013-07-01 12:48:00,
2013-07-01 06:53:00,66.0,56.0,30.14,South,180,6.0,7.0,70,0.00,,,0.00,VWS V14.01,2013-07-01 12:53:00,
2013-07-01 06:58:00,66.0,56.3,30.14,South,180,6.0,8.0,71,0.00,,,0.00,VWS V14.01,2013-07-01 12:58:00,
2013-07-01 07:03:00,66.0,56.0,30.14,SSE,157,6.0,8.0,70,0.00,,,0.00,VWS V14.01,2013-07-01 13:03:00,
2013-07-01 07:09:00,66.0,57.5,30.14,South,180,5.0,8.0,74,0.00,,,0.00,VWS V14.01,2013-07-01 13:09:00,
2013-07-01 07:14:00,66.0,56.3,30.14,SE,135,9.0,9.0,71,0.00,,,0.00,VWS V14.01,2013-07-01 13:14:00,
2013-07-01 07:19:00,66.0,56.7,30.14,SSE,157,7.0,10.0,72,0.00,,,0.00,VWS V14.01,2013-07-01 13:19:00,
2013-07-01 07:24:00,66.0,55.5,30.14,SSE,157,9.0,11.0,69,0.00,,,0.00,VWS V14.01,2013-07-01 13:24:00,
2013-07-01 07:29:00,67.0,56.9,30.14,SE,135,5.0,7.0,70,0.00,,,0.00,VWS V14.01,2013-07-01 13:29:00,
2013-07-01 07:34:00,67.0,56.9,30.13,SSE,157,3.0,9.0,70,0.00,,,0.00,VWS V14.01,2013-07-01 13:34:00,
2013-07-01 07:39:00,67.0,56.5,30.13,SE,135,6.0,11.0,69,0.00,,,0.00,VWS V14.01,2013-07-01 13:39:00,
2013-07-01 07:44:00,67.0,56.1,30.13,SE,135,11.0,12.0,68,0.00,,,0.00,VWS V14.01,2013-07-01 13:44:00,
2013-07-01 07:49:00,66.0,54.7,30.13,SE,135,8.0,12.0,67,0.00,,,0.00,VWS V14.01,2013-07-01 13:49:00,
2013-07-01 07:54:00,66.0,56.0,30.15,SE,135,8.0,12.0,70,0.00,,,0.00,VWS V14.01,2013-07-01 13:54:00,
2013-07-01 07:59:00,66.0,57.1,30.15,SE,135,4.0,6.0,73,0.00,,,0.00,VWS V14.01,2013-07-01 13:59:00,
2013-07-01 08:04:00,65.0,55.8,30.15,SE,135,7.0,9.0,72,0.00,,,0.00,VWS V14.01,2013-07-01 14:04:00,
2013-07-01 08:09:00,65.0,56.5,30.15,SSE,157,3.0,10.0,74,0.00,,,0.00,VWS V14.01,2013-07-01 14:09:00,
2013-07-01 08:14:00,67.0,57.7,30.15,SE,135,4.0,10.0,72,0.00,,,0.00,VWS V14.01,2013-07-01 14:14:00,
2013-07-01 08:19:00,68.0,58.7,30.15,ESE,112,7.0,10.0,72,0.00,,,0.00,VWS V14.01,2013-07-01 14:19:00,
2013-07-01 08:24:00,67.0,56.5,30.13,SE,135,6.0,13.0,69,0.00,,,0.00,VWS V14.01,2013-07-01 14:24:00,
2013-07-01 08:29:00,67.0,56.9,30.13,South,180,7.0,10.0,70,0.00,,,0.00,VWS V14.01,2013-07-01 14:29:00,
2013-07-01 08:34:00,68.0,57.1,30.13,SSE,157,6.0,12.0,68,0.00,,,0.00,VWS V14.01,2013-07-01 14:34:00,
2013-07-01 08:39:00,68.0,56.7,30.13,SE,135,8.0,12.0,67,0.00,,,0.00,VWS V14.01,2013-07-01 14:39:00,
2013-07-01 08:44:00,69.0,57.2,30.13,South,180,7.0,12.0,66,0.00,,,0.00,VWS V14.01,2013-07-01 14:44:00,
2013-07-01 08:49:00,69.0,55.9,30.13,SSE,157,10.0,12.0,63,0.00,,,0.00,VWS V14.01,2013-07-01 14:49:00,
2013-07-01 08:55:00,70.0,56.8,30.12,South,180,12.0,14.0,63,0.00,,,0.00,VWS V14.01,2013-07-01 14:55:00,
2013-07-01 09:00:00,70.0,56.0,30.12,SSE,157,13.0,13.0,61,0.00,,,0.00,VWS V14.01,2013-07-01 15:00:00,
2013-07-01 09:05:00,69.0,55.9,30.12,SSE,157,10.0,15.0,63,0.00,,,0.00,VWS V14.01,2013-07-01 15:05:00,
2013-07-01 09:10:00,69.0,55.9,30.12,SE,135,6.0,15.0,63,0.00,,,0.00,VWS V14.01,2013-07-01 15:10:00,
2013-07-01 09:15:00,70.0,56.8,30.12,SE,135,6.0,15.0,63,0.00,,,0.00,VWS V14.01,2013-07-01 15:15:00,
2013-07-01 09:20:00,71.0,57.3,30.12,SE,135,10.0,15.0,62,0.00,,,0.00,VWS V14.01,2013-07-01 15:20:00,
2013-07-01 09:25:00,71.0,56.9,30.11,SE,135,9.0,15.0,61,0.00,,,0.00,VWS V14.01,2013-07-01 15:25:00,
2013-07-01 09:30:00,71.0,56.4,30.11,SE,135,10.0,13.0,60,0.00,,,0.00,VWS V14.01,2013-07-01 15:30:00,
2013-07-01 09:35:00,71.0,56.4,30.11,ESE,112,11.0,13.0,60,0.00,,,0.00,VWS V14.01,2013-07-01 15:35:00,
2013-07-01 09:40:00,71.0,56.4,30.11,ESE,112,10.0,14.0,60,0.00,,,0.00,VWS V14.01,2013-07-01 15:40:00,
2013-07-01 09:45:00,71.0,56.4,30.11,SE,135,10.0,16.0,60,0.00,,,0.00,VWS V14.01,2013-07-01 15:45:00,
2013-07-01 09:50:00,71.0,55.5,30.11,SSE,157,11.0,16.0,58,0.00,,,0.00,VWS V14.01,2013-07-01 15:50:00,
2013-07-01 09:55:00,72.0,57.4,30.10,SSE,157,13.0,16.0,60,0.00,,,0.00,VWS V14.01,2013-07-01 15:55:00,
2013-07-01 10:00:00,73.0,56.4,30.10,SSW,202,7.0,10.0,56,0.00,,,0.00,VWS V14.01,2013-07-01 16:00:00,
2013-07-01 10:05:00,72.0,57.4,30.10,ESE,112,9.0,16.0,60,0.00,,,0.00,VWS V14.01,2013-07-01 16:05:00,
2013-07-01 10:10:00,72.0,55.5,30.10,SE,135,7.0,16.0,56,0.00,,,0.00,VWS V14.01,2013-07-01 16:10:00,
2013-07-01 10:15:00,72.0,56.4,30.09,SE,135,9.0,16.0,58,0.00,,,0.00,VWS V14.01,2013-07-01 16:15:00,
2013-07-01 10:20:00,72.0,56.4,30.09,ESE,112,8.0,16.0,58,0.00,,,0.00,VWS V14.01,2013-07-01 16:20:00,
2013-07-01 10:25:00,73.0,55.9,30.10,SSE,157,9.0,17.0,55,0.00,,,0.00,VWS V14.01,2013-07-01 16:25:00,
2013-07-01 10:30:00,73.0,55.9,30.10,SE,135,10.0,17.0,55,0.00,,,0.00,VWS V14.01,2013-07-01 16:30:00,
2013-07-01 10:35:00,73.0,55.9,30.10,ESE,112,10.0,17.0,55,0.00,,,0.00,VWS V14.01,2013-07-01 16:35:00,
2013-07-01 10:40:00,73.0,55.9,30.10,ESE,112,7.0,17.0,55,0.00,,,0.00,VWS V14.01,2013-07-01 16:40:00,
2013-07-01 10:45:00,73.0,53.8,30.10,SSE,157,13.0,18.0,51,0.00,,,0.00,VWS V14.01,2013-07-01 16:45:00,
2013-07-01 10:50:00,73.0,54.9,30.10,SE,135,7.0,18.0,53,0.00,,,0.00,VWS V14.01,2013-07-01 16:50:00,
2013-07-01 10:55:00,73.0,53.8,30.09,SSE,157,12.0,18.0,51,0.00,,,0.00,VWS V14.01,2013-07-01 16:55:00,
2013-07-01 11:00:00,74.0,56.3,30.09,SE,135,12.0,20.0,54,0.00,,,0.00,VWS V14.01,2013-07-01 17:00:00,
2013-07-01 11:05:00,74.0,55.3,30.09,SE,135,12.0,20.0,52,0.00,,,0.00,VWS V14.01,2013-07-01 17:05:00,
2013-07-01 11:10:00,73.0,53.8,30.09,ESE,112,8.0,20.0,51,0.00,,,0.00,VWS V14.01,2013-07-01 17:10:00,
2013-07-01 11:15:00,74.0,56.3,30.09,SE,135,6.0,20.0,54,0.00,,,0.00,VWS V14.01,2013-07-01 17:15:00,
2013-07-01 11:21:00,75.0,55.1,30.08,SSE,157,10.0,20.0,50,0.00,,,0.00,VWS V14.01,2013-07-01 17:21:00,
2013-07-01 11:26:00,75.0,55.1,30.08,SE,135,12.0,20.0,50,0.00,,,0.00,VWS V14.01,2013-07-01 17:26:00,
2013-07-01 11:31:00,74.0,54.7,30.09,SSE,157,9.0,17.0,51,0.00,,,0.00,VWS V14.01,2013-07-01 17:31:00,
2013-07-01 11:36:00,74.0,54.2,30.09,East,90,7.0,20.0,50,0.00,,,0.00,VWS V14.01,2013-07-01 17:36:00,
2013-07-01 11:41:00,75.0,54.0,30.08,South,180,15.0,20.0,48,0.00,,,0.00,VWS V14.01,2013-07-01 17:41:00,
2013-07-01 11:46:00,76.0,54.9,30.08,SSE,157,10.0,20.0,48,0.00,,,0.00,VWS V14.01,2013-07-01 17:46:00,
2013-07-01 11:51:00,75.0,55.1,30.08,East,90,3.0,20.0,50,0.00,,,0.00,VWS V14.01,2013-07-01 17:51:00,
2013-07-01 11:56:00,75.0,55.7,30.08,ESE,112,12.0,20.0,51,0.00,,,0.00,VWS V14.01,2013-07-01 17:56:00,
2013-07-01 12:01:00,75.0,55.1,30.08,ESE,112,7.0,9.0,50,0.00,,,0.00,VWS V14.01,2013-07-01 18:01:00,
2013-07-01 12:06:00,76.0,56.0,30.08,SE,135,10.0,16.0,50,0.00,,,0.00,VWS V14.01,2013-07-01 18:06:00,
2013-07-01 12:11:00,75.0,55.7,30.08,SSE,157,6.0,16.0,51,0.00,,,0.00,VWS V14.01,2013-07-01 18:11:00,
2013-07-01 12:16:00,74.0,55.8,30.08,ESE,112,12.0,16.0,53,0.00,,,0.00,VWS V14.01,2013-07-01 18:16:00,
2013-07-01 12:21:00,74.0,55.3,30.08,SE,135,12.0,19.0,52,0.00,,,0.00,VWS V14.01,2013-07-01 18:21:00,
2013-07-01 12:26:00,76.0,55.5,30.08,SE,135,19.0,19.0,49,0.00,,,0.00,VWS V14.01,2013-07-01 18:26:00,
2013-07-01 12:31:00,76.0,54.9,30.07,SSE,157,14.0,14.0,48,0.00,,,0.00,VWS V14.01,2013-07-01 18:31:00,
2013-07-01 12:36:00,77.0,57.0,30.07,SSE,157,7.0,16.0,50,0.00,,,0.00,VWS V14.01,2013-07-01 18:36:00,
2013-07-01 12:41:00,77.0,54.7,30.05,SE,135,12.0,16.0,46,0.00,,,0.00,VWS V14.01,2013-07-01 18:41:00,
2013-07-01 12:46:00,76.0,54.9,30.05,SE,135,13.0,17.0,48,0.00,,,0.00,VWS V14.01,2013-07-01 18:46:00,
2013-07-01 12:51:00,77.0,55.8,30.05,SSE,157,17.0,17.0,48,0.00,,,0.00,VWS V14.01,2013-07-01 18:51:00,
2013-07-01 12:56:00,77.0,57.0,30.05,SSE,157,11.0,17.0,50,0.00,,,0.00,VWS V14.01,2013-07-01 18:56:00,
2013-07-01 13:01:00,78.0,55.0,30.04,South,180,13.0,15.0,45,0.00,,,0.00,VWS V14.01,2013-07-01 19:01:00,
2013-07-01 13:06:00,78.0,56.2,30.04,East,90,3.0,17.0,47,0.00,,,0.00,VWS V14.01,2013-07-01 19:06:00,
2013-07-01 13:11:00,78.0,55.0,30.04,SE,135,10.0,17.0,45,0.00,,,0.00,VWS V14.01,2013-07-01 19:11:00,
2013-07-01 13:16:00,77.0,54.1,30.04,SSE,157,7.0,17.0,45,0.00,,,0.00,VWS V14.01,2013-07-01 19:16:00,
2013-07-01 13:21:00,77.0,55.8,30.05,SE,135,9.0,17.0,48,0.00,,,0.00,VWS V14.01,2013-07-01 19:21:00,
2013-07-01 13:26:00,76.0,54.9,30.05,East,90,13.0,17.0,48,0.00,,,0.00,VWS V14.01,2013-07-01 19:26:00,
2013-07-01 13:31:00,76.0,53.8,30.05,East,90,6.0,12.0,46,0.00,,,0.00,VWS V14.01,2013-07-01 19:31:00,
2013-07-01 13:36:00,76.0,54.9,30.05,East,90,7.0,16.0,48,0.00,,,0.00,VWS V14.01,2013-07-01 19:36:00,
2013-07-01 13:41:00,76.0,54.9,30.06,East,90,9.0,16.0,48,0.00,,,0.00,VWS V14.01,2013-07-01 19:41:00,
2013-07-01 13:46:00,76.0,56.0,30.06,SE,135,5.0,16.0,50,0.00,,,0.00,VWS V14.01,2013-07-01 19:46:00,
2013-07-01 13:51:00,76.0,53.8,30.05,East,90,6.0,16.0,46,0.00,,,0.00,VWS V14.01,2013-07-01 19:51:00,
2013-07-01 13:56:00,76.0,54.9,30.05,SE,135,6.0,16.0,48,0.00,,,0.00,VWS V14.01,2013-07-01 19:56:00,
2013-07-01 14:01:00,76.0,53.8,30.06,SSE,157,7.0,14.0,46,0.00,,,0.00,VWS V14.01,2013-07-01 20:01:00,
2013-07-01 14:06:00,77.0,54.7,30.06,SE,135,9.0,14.0,46,0.00,,,0.00,VWS V14.01,2013-07-01 20:06:00,
2013-07-01 14:11:00,78.0,53.7,30.04,SSE,157,7.0,14.0,43,0.00,,,0.00,VWS V14.01,2013-07-01 20:11:00,
2013-07-01 14:16:00,79.0,55.9,30.04,SE,135,6.0,15.0,45,0.00,,,0.00,VWS V14.01,2013-07-01 20:16:00,
2013-07-01 14:21:00,79.0,55.2,30.03,East,90,8.0,16.0,44,0.00,,,0.00,VWS V14.01,2013-07-01 20:21:00,
2013-07-01 14:26:00,78.0,55.0,30.03,ENE,67,10.0,16.0,45,0.00,,,0.00,VWS V14.01,2013-07-01 20:26:00,
2013-07-01 14:31:00,78.0,53.7,30.03,SSE,157,9.0,13.0,43,0.00,,,0.00,VWS V14.01,2013-07-01 20:31:00,
2013-07-01 14:36:00,77.0,54.1,30.03,East,90,9.0,16.0,45,0.00,,,0.00,VWS V14.01,2013-07-01 20:36:00,
2013-07-01 14:41:00,77.0,54.1,30.04,East,90,7.0,16.0,45,0.00,,,0.00,VWS V14.01,2013-07-01 20:41:00,
2013-07-01 14:46:00,77.0,55.2,30.04,ESE,112,10.0,16.0,47,0.00,,,0.00,VWS V14.01,2013-07-01 20:46:00,
2013-07-01 14:51:00,77.0,54.1,30.03,East,90,7.0,16.0,45,0.00,,,0.00,VWS V14.01,2013-07-01 20:51:00,
2013-07-01 14:56:00,76.0,53.8,30.03,SE,135,12.0,17.0,46,0.00,,,0.00,VWS V14.01,2013-07-01 20:56:00,
2013-07-01 15:01:00,77.0,54.7,30.04,ESE,112,4.0,13.0,46,0.00,,,0.00,VWS V14.01,2013-07-01 21:01:00,
2013-07-01 15:06:00,77.0,54.1,30.04,ESE,112,13.0,15.0,45,0.00,,,0.00,VWS V14.01,2013-07-01 21:06:00,
2013-07-01 15:12:00,77.0,54.7,30.03,ESE,112,7.0,15.0,46,0.00,,,0.00,VWS V14.01,2013-07-01 21:12:00,
2013-07-01 15:17:00,77.0,54.1,30.03,SE,135,8.0,15.0,45,0.00,,,0.00,VWS V14.01,2013-07-01 21:17:00,
2013-07-01 15:22:00,77.0,54.1,30.04,South,180,7.0,15.0,45,0.00,,,0.00,VWS V14.01,2013-07-01 21:22:00,
2013-07-01 15:27:00,77.0,53.4,30.04,East,90,9.0,15.0,44,0.00,,,0.00,VWS V14.01,2013-07-01 21:27:00,
2013-07-01 15:32:00,77.0,54.7,30.04,ESE,112,6.0,9.0,46,0.00,,,0.00,VWS V14.01,2013-07-01 21:32:00,
2013-07-01 15:37:00,77.0,53.4,30.04,East,90,6.0,10.0,44,0.00,,,0.00,VWS V14.01,2013-07-01 21:37:00,
2013-07-01 15:42:00,77.0,52.2,30.03,ESE,112,4.0,10.0,42,0.00,,,0.00,VWS V14.01,2013-07-01 21:42:00,
2013-07-01 15:47:00,77.0,52.8,30.03,SE,135,4.0,10.0,43,0.00,,,0.00,VWS V14.01,2013-07-01 21:47:00,
2013-07-01 15:52:00,77.0,52.8,30.03,SE,135,6.0,11.0,43,0.00,,,0.00,VWS V14.01,2013-07-01 21:52:00,
2013-07-01 15:57:00,77.0,52.8,30.03,ESE,112,7.0,11.0,43,0.00,,,0.00,VWS V14.01,2013-07-01 21:57:00,
2013-07-01 16:02:00,77.0,54.1,30.03,ESE,112,6.0,8.0,45,0.00,,,0.00,VWS V14.01,2013-07-01 22:02:00,
2013-07-01 16:07:00,77.0,53.4,30.03,East,90,9.0,11.0,44,0.00,,,0.00,VWS V14.01,2013-07-01 22:07:00,
2013-07-01 16:12:00,78.0,54.3,30.03,East,90,12.0,14.0,44,0.00,,,0.00,VWS V14.01,2013-07-01 22:12:00,
2013-07-01 16:17:00,77.0,52.8,30.03,SE,135,12.0,17.0,43,0.00,,,0.00,VWS V14.01,2013-07-01 22:17:00,
2013-07-01 16:22:00,78.0,54.3,30.03,ESE,112,9.0,17.0,44,0.00,,,0.00,VWS V14.01,2013-07-01 22:22:00,
2013-07-01 16:27:00,77.0,53.4,30.03,East,90,7.0,17.0,44,0.00,,,0.00,VWS V14.01,2013-07-01 22:27:00,
2013-07-01 16:32:00,77.0,53.4,30.03,ESE,112,1.0,8.0,44,0.00,,,0.00,VWS V14.01,2013-07-01 22:32:00,
2013-07-01 16:37:00,77.0,52.8,30.03,East,90,9.0,13.0,43,0.00,,,0.00,VWS V14.01,2013-07-01 22:37:00,
2013-07-01 16:42:00,77.0,53.4,30.03,NNE,22,6.0,13.0,44,0.00,,,0.00,VWS V14.01,2013-07-01 22:42:00,
2013-07-01 16:47:00,77.0,52.8,30.03,ENE,67,7.0,13.0,43,0.00,,,0.00,VWS V14.01,2013-07-01 22:47:00,
2013-07-01 16:52:00,77.0,52.8,30.03,East,90,7.0,13.0,43,0.00,,,0.00,VWS V14.01,2013-07-01 22:52:00,
2013-07-01 16:57:00,78.0,53.7,30.03,East,90,7.0,13.0,43,0.00,,,0.00,VWS V14.01,2013-07-01 22:57:00,
2013-07-01 17:02:00,78.0,53.7,30.02,East,90,9.0,13.0,43,0.00,,,0.00,VWS V14.01,2013-07-01 23:02:00,
2013-07-01 17:07:00,78.0,52.4,30.02,SE,135,7.0,13.0,41,0.00,,,0.00,VWS V14.01,2013-07-01 23:07:00,
2013-07-01 17:12:00,78.0,53.1,30.01,East,90,9.0,13.0,42,0.00,,,0.00,VWS V14.01,2013-07-01 23:12:00,
2013-07-01 17:17:00,79.0,53.3,30.01,East,90,6.0,13.0,41,0.00,,,0.00,VWS V14.01,2013-07-01 23:17:00,
2013-07-01 17:22:00,79.0,53.3,30.01,SE,135,5.0,14.0,41,0.00,,,0.00,VWS V14.01,2013-07-01 23:22:00,
2013-07-01 17:27:00,79.0,53.3,30.01,East,90,0.0,14.0,41,0.00,,,0.00,VWS V14.01,2013-07-01 23:27:00,
2013-07-01 17:32:00,78.0,53.1,30.01,East,90,9.0,12.0,42,0.00,,,0.00,VWS V14.01,2013-07-01 23:32:00,
2013-07-01 17:37:00,77.0,52.8,30.01,ESE,112,10.0,12.0,43,0.00,,,0.00,VWS V14.01,2013-07-01 23:37:00,
2013-07-01 17:42:00,77.0,54.1,30.02,East,90,7.0,13.0,45,0.00,,,0.00,VWS V14.01,2013-07-01 23:42:00,
2013-07-01 17:47:00,76.0,53.2,30.02,NE,45,7.0,13.0,45,0.00,,,0.00,VWS V14.01,2013-07-01 23:47:00,
2013-07-01 17:52:00,76.0,54.3,30.03,ENE,67,6.0,13.0,47,0.00,,,0.00,VWS V14.01,2013-07-01 23:52:00,
2013-07-01 17:57:00,77.0,54.7,30.03,East,90,8.0,13.0,46,0.00,,,0.00,VWS V14.01,2013-07-01 23:57:00,
2013-07-01 18:02:00,78.0,53.1,30.01,East,90,12.0,16.0,42,0.00,,,0.00,VWS V14.01,2013-07-02 00:02:00,
2013-07-01 18:07:00,78.0,53.1,30.01,East,90,12.0,16.0,42,0.00,,,0.00,VWS V14.01,2013-07-02 00:07:00,
2013-07-01 18:12:00,77.0,52.8,30.01,East,90,10.0,16.0,43,0.00,,,0.00,VWS V14.01,2013-07-02 00:12:00,
2013-07-01 18:17:00,76.0,53.8,30.01,East,90,6.0,16.0,46,0.00,,,0.00,VWS V14.01,2013-07-02 00:17:00,
2013-07-01 18:22:00,76.0,53.2,30.03,ENE,67,5.0,16.0,45,0.00,,,0.00,VWS V14.01,2013-07-02 00:22:00,
2013-07-01 18:27:00,77.0,52.2,30.03,East,90,8.0,16.0,42,0.00,,,0.00,VWS V14.01,2013-07-02 00:27:00,
2013-07-01 18:32:00,77.0,52.2,30.02,East,90,10.0,15.0,42,0.00,,,0.00,VWS V14.01,2013-07-02 00:32:00,
2013-07-01 18:37:00,77.0,52.2,30.02,ESE,112,9.0,16.0,42,0.00,,,0.00,VWS V14.01,2013-07-02 00:37:00,
2013-07-01 18:42:00,77.0,52.8,30.01,East,90,11.0,16.0,43,0.00,,,0.00,VWS V14.01,2013-07-02 00:42:00,
2013-07-01 18:47:00,77.0,52.8,30.01,ESE,112,5.0,16.0,43,0.00,,,0.00,VWS V14.01,2013-07-02 00:47:00,
2013-07-01 18:52:00,76.0,53.2,30.01,East,90,10.0,16.0,45,0.00,,,0.00,VWS V14.01,2013-07-02 00:52:00,
2013-07-01 18:58:00,75.0,52.8,30.01,East,90,7.0,16.0,46,0.00,,,0.00,VWS V14.01,2013-07-02 00:58:00,
2013-07-01 19:03:00,75.0,52.8,30.03,East,90,10.0,13.0,46,0.00,,,0.00,VWS V14.01,2013-07-02 01:03:00,
2013-07-01 19:08:00,75.0,52.2,30.03,East,90,14.0,16.0,45,0.00,,,0.00,VWS V14.01,2013-07-02 01:08:00,
2013-07-01 19:13:00,75.0,52.2,30.03,East,90,7.0,18.0,45,0.00,,,0.00,VWS V14.01,2013-07-02 01:13:00,
2013-07-01 19:14:00,75.0,52.2,30.03,East,90,10.0,18.0,45,0.00,,,0.00,VWS V14.01,2013-07-02 01:14:00,
2013-07-01 19:19:00,74.0,51.9,30.03,East,90,10.0,18.0,46,0.00,,,0.00,VWS V14.01,2013-07-02 01:19:00,
2013-07-01 19:24:00,74.0,52.5,30.04,East,90,9.0,18.0,47,0.00,,,0.00,VWS V14.01,2013-07-02 01:24:00,
2013-07-01 19:29:00,73.0,52.7,30.04,East,90,8.0,10.0,49,0.00,,,0.00,VWS V14.01,2013-07-02 01:29:00,
2013-07-01 19:34:00,73.0,53.3,30.05,East,90,7.0,12.0,50,0.00,,,0.00,VWS V14.01,2013-07-02 01:34:00,
2013-07-01 19:39:00,73.0,52.2,30.05,East,90,9.0,12.0,48,0.00,,,0.00,VWS V14.01,2013-07-02 01:39:00,
2013-07-01 19:44:00,73.0,52.7,30.05,East,90,10.0,13.0,49,0.00,,,0.00,VWS V14.01,2013-07-02 01:44:00,
2013-07-01 19:49:00,73.0,52.2,30.05,East,90,10.0,14.0,48,0.00,,,0.00,VWS V14.01,2013-07-02 01:49:00,
2013-07-01 19:54:00,73.0,51.6,30.05,East,90,10.0,15.0,47,0.00,,,0.00,VWS V14.01,2013-07-02 01:54:00,
2013-07-01 19:59:00,73.0,51.0,30.05,East,90,10.0,12.0,46,0.00,,,0.00,VWS V14.01,2013-07-02 01:59:00,
2013-07-01 20:04:00,72.0,50.1,30.05,East,90,13.0,14.0,46,0.00,,,0.00,VWS V14.01,2013-07-02 02:04:00,
2013-07-01 20:09:00,72.0,50.1,30.05,East,90,9.0,14.0,46,0.00,,,0.00,VWS V14.01,2013-07-02 02:09:00,
2013-07-01 20:14:00,72.0,50.7,30.05,East,90,7.0,14.0,47,0.00,,,0.00,VWS V14.01,2013-07-02 02:14:00,
2013-07-01 20:19:00,71.0,49.8,30.05,East,90,10.0,15.0,47,0.00,,,0.00,VWS V14.01,2013-07-02 02:19:00,
2013-07-01 20:24:00,71.0,49.2,30.06,East,90,12.0,16.0,46,0.00,,,0.00,VWS V14.01,2013-07-02 02:24:00,
2013-07-01 20:29:00,70.0,49.4,30.06,East,90,10.0,12.0,48,0.00,,,0.00,VWS V14.01,2013-07-02 02:29:00,
2013-07-01 20:34:00,70.0,49.4,30.07,ENE,67,7.0,14.0,48,0.00,,,0.00,VWS V14.01,2013-07-02 02:34:00,
2013-07-01 20:39:00,70.0,49.4,30.07,East,90,10.0,14.0,48,0.00,,,0.00,VWS V14.01,2013-07-02 02:39:00,
2013-07-01 20:44:00,69.0,48.5,30.07,East,90,8.0,15.0,48,0.00,,,0.00,VWS V14.01,2013-07-02 02:44:00,
2013-07-01 20:50:00,69.0,49.1,30.07,East,90,9.0,15.0,49,0.00,,,0.00,VWS V14.01,2013-07-02 02:50:00,
2013-07-01 20:55:00,69.0,49.1,30.07,East,90,8.0,15.0,49,0.00,,,0.00,VWS V14.01,2013-07-02 02:55:00,
2013-07-01 21:00:00,68.0,47.6,30.07,East,90,7.0,13.0,48,0.00,,,0.00,VWS V14.01,2013-07-02 03:00:00,
2013-07-01 21:05:00,68.0,47.6,30.08,East,90,8.0,13.0,48,0.00,,,0.00,VWS V14.01,2013-07-02 03:05:00,
2013-07-01 21:10:00,68.0,48.7,30.08,East,90,7.0,13.0,50,0.00,,,0.00,VWS V14.01,2013-07-02 03:10:00,
2013-07-01 21:15:00,68.0,48.7,30.09,East,90,7.0,13.0,50,0.00,,,0.00,VWS V14.01,2013-07-02 03:15:00,
2013-07-01 21:20:00,67.0,47.8,30.09,East,90,9.0,13.0,50,0.00,,,0.00,VWS V14.01,2013-07-02 03:20:00,
2013-07-01 21:25:00,67.0,47.8,30.10,East,90,6.0,13.0,50,0.00,,,0.00,VWS V14.01,2013-07-02 03:25:00,
2013-07-01 21:30:00,67.0,48.3,30.10,East,90,6.0,7.0,51,0.00,,,0.00,VWS V14.01,2013-07-02 03:30:00,
2013-07-01 21:35:00,66.0,47.9,30.11,East,90,4.0,8.0,52,0.00,,,0.00,VWS V14.01,2013-07-02 03:35:00,
2013-07-01 21:40:00,66.0,48.4,30.11,East,90,4.0,8.0,53,0.00,,,0.00,VWS V14.01,2013-07-02 03:40:00,
2013-07-01 21:45:00,66.0,48.4,30.12,East,90,3.0,8.0,53,0.00,,,0.00,VWS V14.01,2013-07-02 03:45:00,
2013-07-01 21:50:00,66.0,48.4,30.12,East,90,4.0,8.0,53,0.00,,,0.00,VWS V14.01,2013-07-02 03:50:00,
2013-07-01 21:55:00,66.0,47.9,30.12,East,90,3.0,8.0,52,0.00,,,0.00,VWS V14.01,2013-07-02 03:55:00,
2013-07-01 22:00:00,66.0,48.4,30.12,ESE,112,0.0,3.0,53,0.00,,,0.00,VWS V14.01,2013-07-02 04:00:00,
2013-07-01 22:01:00,66.0,47.9,30.12,ESE,112,0.0,3.0,52,0.00,,,0.00,VWS V14.01,2013-07-02 04:01:00,
2013-07-01 22:02:00,66.0,48.4,30.12,ESE,112,0.0,3.0,53,0.00,,,0.00,VWS V14.01,2013-07-02 04:02:00,
2013-07-01 22:07:00,66.0,48.9,30.12,SE,135,0.0,3.0,54,0.00,,,0.00,VWS V14.01,2013-07-02 04:07:00,
2013-07-01 22:12:00,66.0,48.9,30.13,SE,135,1.0,3.0,54,0.00,,,0.00,VWS V14.01,2013-07-02 04:12:00,
2013-07-01 22:17:00,66.0,48.9,30.13,East,90,0.0,3.0,54,0.00,,,0.00,VWS V14.01,2013-07-02 04:17:00,
2013-07-01 22:22:00,66.0,48.9,30.12,East,90,1.0,3.0,54,0.00,,,0.00,VWS V14.01,2013-07-02 04:22:00,
2013-07-01 22:27:00,66.0,49.4,30.12,East,90,1.0,3.0,55,0.00,,,0.00,VWS V14.01,2013-07-02 04:27:00,
2013-07-01 22:32:00,66.0,49.4,30.13,ESE,112,0.0,2.0,55,0.00,,,0.00,VWS V14.01,2013-07-02 04:32:00,
2013-07-01 22:37:00,65.0,48.5,30.13,ESE,112,0.0,3.0,55,0.00,,,0.00,VWS V14.01,2013-07-02 04:37:00,
2013-07-01 22:42:00,65.0,48.9,30.13,ESE,112,0.0,3.0,56,0.00,,,0.00,VWS V14.01,2013-07-02 04:42:00,
2013-07-01 22:47:00,65.0,48.9,30.13,ESE,112,0.0,3.0,56,0.00,,,0.00,VWS V14.01,2013-07-02 04:47:00,
2013-07-01 22:52:00,65.0,49.4,30.13,ESE,112,0.0,3.0,57,0.00,,,0.00,VWS V14.01,2013-07-02 04:52:00,
2013-07-01 22:57:00,64.0,48.5,30.13,SSE,157,0.0,3.0,57,0.00,,,0.00,VWS V14.01,2013-07-02 04:57:00,
2013-07-01 23:02:00,64.0,48.5,30.13,SSE,157,0.0,0.0,57,0.00,,,0.00,VWS V14.01,2013-07-02 05:02:00,
2013-07-01 23:07:00,64.0,48.5,30.13,East,90,0.0,2.0,57,0.00,,,0.00,VWS V14.01,2013-07-02 05:07:00,
2013-07-01 23:12:00,65.0,48.5,30.13,East,90,0.0,2.0,55,0.00,,,0.00,VWS V14.01,2013-07-02 05:12:00,
2013-07-01 23:17:00,65.0,48.0,30.13,ESE,112,2.0,4.0,54,0.00,,,0.00,VWS V14.01,2013-07-02 05:17:00,
2013-07-01 23:22:00,65.0,48.0,30.13,SE,135,0.0,4.0,54,0.00,,,0.00,VWS V14.01,2013-07-02 05:22:00,
2013-07-01 23:27:00,65.0,48.5,30.13,SSE,157,0.0,4.0,55,0.00,,,0.00,VWS V14.01,2013-07-02 05:27:00,
2013-07-01 23:32:00,64.0,48.5,30.13,SW,225,0.0,0.0,57,0.00,,,0.00,VWS V14.01,2013-07-02 05:32:00,
2013-07-01 23:37:00,64.0,49.4,30.13,SW,225,0.0,0.0,59,0.00,,,0.00,VWS V14.01,2013-07-02 05:37:00,
2013-07-01 23:42:00,63.0,48.5,30.13,SW,225,0.0,0.0,59,0.00,,,0.00,VWS V14.01,2013-07-02 05:42:00,
2013-07-01 23:47:00,63.0,48.5,30.13,SSW,202,0.0,2.0,59,0.00,,,0.00,VWS V14.01,2013-07-02 05:47:00,
2013-07-01 23:53:00,63.0,48.5,30.14,SSW,202,0.0,2.0,59,0.00,,,0.00,VWS V14.01,2013-07-02 05:53:00,
2013-07-01 23:58:00,62.0,48.0,30.14,SSW,202,0.0,2.0,60,0.00,,,0.00,VWS V14.01,2013-07-02 05:58:00,